This demonstration page uses our WeatherBlox Daily Observations layout. Learn more.

Left ArrowRight Arrow

39.92423, -83.80882

Hourly Observations for August 24, 2022

Temp ( °F °C ) Dew Point ( °F °C ) Humidity (%) Winds ( mph kmh ) Pressure ( in mb ) Visibility ( mi km ) Precip ( " mm )
12:56 am 00:56 Clear N/A N/A N/A Calm 30.10 1019 10 16 0.00 0.00
1:56 am 01:56 Clear N/A N/A N/A Calm 30.10 1019 10 16 0.00 0.00
2:56 am 02:56 Clear N/A N/A N/A Calm 30.10 1019 10 16 0.00 0.00
3:56 am 03:56 Clear N/A N/A N/A Calm 30.10 1019 10 16 0.00 0.00
4:26 am 04:26 Mostly Clear with Mist and Fog N/A N/A N/A Calm 30.11 1020 3 4 0.00 0.00
4:31 am 04:31 Clear with Mist and Fog N/A N/A N/A Calm 30.11 1020 1 2 0.00 0.00
4:46 am 04:46 Mostly Clear with Light Rain N/A N/A N/A Calm 30.11 1020 3 4 0.01 0.13
4:56 am 04:56 Clear N/A N/A N/A Calm 30.11 1020 10 16 0.01 0.13
5:56 am 05:56 Clear N/A N/A N/A Calm 30.12 1020 10 16 0.00 0.00
6:56 am 06:56 Clear N/A N/A N/A Calm 30.12 1020 8 13 0.00 0.00
7:13 am 07:13 Partly Cloudy with Fog N/A N/A N/A Calm 30.13 1020 1 1 0.00 0.00
7:25 am 07:25 Mostly Cloudy with Fog N/A N/A N/A ESE 3 6 30.13 1020 0 0 0.00 0.00
7:33 am 07:33 Hazy N/A N/A N/A Calm 30.13 1020 6 10 0.00 0.00
7:56 am 07:56 Sunny N/A N/A N/A Calm 30.14 1021 10 16 0.00 0.00
8:56 am 08:56 Sunny 65 18.3 65 18.3 100 100 Calm 30.09 1019 10 16 0.00 0.00
9:56 am 09:56 Sunny 72 22.2 62 16.7 71 71 Calm 30.09 1019 10 16 0.00 0.00
10:56 am 10:56 Sunny 75 23.9 61 16.1 62 62 Calm 30.10 1019 10 16 0.00 0.00
11:56 am 11:56 Mostly Sunny 77 25 60 15.6 56 56 VRB 3 6 30.06 1018 10 16 0.00 0.00
12:56 pm 12:56 Cloudy 78 25.6 59 15 52 52 ESE 5 7 30.06 1018 10 16 0.00 0.00
1:56 pm 13:56 Sunny 79 26.1 62 16.7 56 56 VRB 5 7 30.05 1018 8 13 0.00 0.00
2:56 pm 14:56 Sunny 80 26.7 60 15.6 51 51 VRB 5 7 30.05 1018 10 16 0.00 0.00
3:56 pm 15:56 Sunny 80 26.7 60 15.6 51 51 VRB 3 6 30.04 1017 10 16 0.00 0.00
4:56 pm 16:56 Sunny 80 26.7 58 14.4 47 47 Calm 30.03 1017 10 16 0.00 0.00
5:56 pm 17:56 Sunny 79 26.1 59 15 50 50 Calm 30.02 1017 10 16 0.00 0.00
6:56 pm 18:56 Sunny 78 25.6 61 16.1 56 56 SSE 3 6 30.02 1017 10 16 0.00 0.00
7:56 pm 19:56 Sunny 73 22.8 66 18.9 79 79 E 3 6 30.02 1017 10 16 0.00 0.00
8:52 pm 20:52 Mostly Clear 68 20 64 18 88 88 ESE 3 6 30.04 1017 10 16 0.00 0.00
8:56 pm 20:56 Mostly Clear 68 20 65 18.3 90 90 ESE 3 6 30.06 1018 10 16 0.00 0.00
9:56 pm 21:56 Clear 64 17.8 N/A N/A Calm 30.06 1018 10 16 0.00 0.00
10:56 pm 22:56 Clear 62 16.7 N/A N/A Calm 30.09 1019 10 16 0.00 0.00
11:56 pm 23:56 Clear N/A N/A N/A Calm 30.15 1021 10 16 0.00 0.00

Powered by AerisWeather